User: anonymous   Login
Location: Unspecified
(0.0000°N, 0.0000°E)
Time: 23:12:29
(UTC+02:00)
Language:

Cosmos 1703 Rocket - Orbit

View from above orbital plane
View from above orbital plane
View from above satellite
View from above satellite

Ground track
Ground track

The orbit data is extracted from the following two-line orbital elements,

1 16263U 85108B   18113.20061368  .00000073  00000-0  59770-5 0  9993
2 16263  82.5057 183.4855 0021274  50.3063 336.2642 14.83028901750334
Epoch (UTC): 23 April 2018 04:48:53
Eccentricity: 0.0021274
inclination: 82.5057°
perigee height: 605 km
apogee height: 634 km
right ascension of ascending node: 183.4855°
argument of perigee: 50.3063°
revolutions per day: 14.83028901
mean anomaly at epoch: 336.2642°
orbit number at epoch: 75033

The dashed part of the orbit path shows where the satellite is in the earth's shadow,  

DLR